Location: Bastelaar
(51.0950°N, 3.8602°E)
Time: 16:51:11
(UTC+00:00)

Cosmos 1464 Rocket - Pass Details

Date: 18 November 2025
Orbit: 950 x 1001 km, 82.9° (Epoch: 09 December)

Event Time Altitude Azimuth Distance (km) Brightness Sun altitude
Rises 17:41:45 0° 178° (S) 3,689 7.1 -16.8°
Reaches altitude 10° 17:44:17 10° 175° (S) 2,737 6.4 -17.2°
Maximum altitude 17:50:29 67° 95° (E) 1,055 3.9 -18.2°
Drops below altitude 10° 17:56:39 10° 14° (NNE) 2,720 6.1 -19.1°
Sets 17:59:10 0° 12° (NNE) 3,664 6.8 -19.5°
